{"data":{"norad_id":45390,"intl_designator":"2020-019AG","name":"STARLINK-1284","alt_names":[],"object_type":"PAYLOAD","status":"ACTIVE","operator":null,"country":"US","launch_date":"2020-03-18","launch_site_code":"AFETR","launch_vehicle":null,"mission":null,"orbit_class":"UNKNOWN","rcs_meters":null,"size_class":null,"mass_kg":null,"dimensions":null,"purposes":["comms"],"wikipedia_slug":null,"has_3d_model":false,"image_url":null,"decayed_at":null,"tle_current":{"epoch":"2026-09-20T00:00:02.998944Z","epoch_age_seconds":61541,"freshness":"FRESH","line1":"1 45390U 20019AG  26263.00003471  .00071939  00000+0  28736-3 0  9994","line2":"2 45390  53.0353 250.5089 0005944  37.5983 325.7633 15.85919628  6030","mean_motion":15.85919628,"eccentricity":0.0005944,"inclination_deg":53.0353,"raan_deg":250.5089,"arg_perigee_deg":37.5983,"mean_anomaly_deg":325.7633,"bstar":0.00028736,"rev_number":603,"period_min":90.799052775202,"perigee_km":309.75888964536,"apogee_km":317.71418890885,"semimajor_km":6691.8735392771,"source":"CELESTRAK","updated_at":"2026-09-20T09:00:38.232954Z"}}}